This is the latest recevied weather packets stored in our database for station/object KD4EED. If no packets are shown the sender has not sent any weather packets the latest 10 day(s).
| Time | Temp. | Humidity | Pressure | Rain* | Wind** | Luminosity | Snow |
|---|---|---|---|---|---|---|---|
| 1788544037 | 23.89° C | 65% | 1011.8 hPa | - | - | 119 W/m² | - |
| 1788543733 | 23.89° C | 64% | 1011.7 hPa | - | - | 138 W/m² | - |
| 1788543428 | 23.89° C | 64% | 1011.8 hPa | - | - | 104 W/m² | - |
| 1788543123 | 23.89° C | 66% | 1011.7 hPa | - | - | 112 W/m² | - |
| 1788542820 | 23.33° C | 64% | 1011.6 hPa | - | - | 89 W/m² | - |
| 1788542519 | 23.33° C | 65% | 1011.5 hPa | - | - | 88 W/m² | - |
| 1788542215 | 22.78° C | 65% | 1011.6 hPa | - | - | 87 W/m² | - |
| 1788541914 | 22.22° C | 69% | 1011.7 hPa | - | - | 107 W/m² | - |
| 1788541611 | 22.22° C | 72% | 1011.6 hPa | - | - | 112 W/m² | - |
| 1788541306 | 21.67° C | 71% | 1011.5 hPa | - | - | 108 W/m² | - |
| 1788541005 | 21.67° C | 71% | 1011.4 hPa | - | - | 125 W/m² | - |
| 1788540704 | 21.67° C | 73% | 1011.5 hPa | - | - | 84 W/m² | - |
| 1788540399 | 21.11° C | 75% | 1011.3 hPa | - | - | 76 W/m² | - |
| 1788540095 | 21.11° C | 75% | 1011.5 hPa | - | - | 62 W/m² | - |
| 1788539791 | 21.11° C | 76% | 1011.2 hPa | - | - | 67 W/m² | - |
| 1788539486 | 20.56° C | 76% | 1011.4 hPa | - | - | 57 W/m² | - |
| 1788539185 | 20.56° C | 77% | 1011.3 hPa | - | - | 67 W/m² | - |
| 1788538880 | 20.56° C | 77% | 1011.2 hPa | - | - | 51 W/m² | - |
| 1788538576 | 20.56° C | 79% | 1011.4 hPa | - | - | 81 W/m² | - |
| 1788538271 | 20.56° C | 78% | 1011.3 hPa | - | - | 60 W/m² | - |
| 1788537967 | 20.56° C | 79% | 1011.1 hPa | - | - | 58 W/m² | - |
| 1788537662 | 20.56° C | 81% | 1011.1 hPa | - | - | 73 W/m² | - |
| 1788537362 | 20° C | 81% | 1011 hPa | - | - | 83 W/m² | - |
| 1788537056 | 20° C | 81% | 1010.9 hPa | - | - | 63 W/m² | - |
| 1788536749 | 20° C | 83% | 1011.1 hPa | - | - | 58 W/m² | - |
* Rain since midnight (hover to see other rain measurements)
** Current wind speed in m/s (hover to see current wind gust speed)